Location: Mentone
(34.5413°N, 85.5351°W)
Time: 09:17:58
(UTC-05:00)

Okean O Rocket - Visible Passes

Search period start: 31 August 2016 00:00
Search period end: 10 September 2016 00:00
Orbit: 624 x 645 km, 98.1° (Epoch: 30 August)

Date Brightness Start Highest point End Pass type
(mag) Time Alt. Az. Time Alt. Az. Time Alt. Az.
31 Aug 2.4 03:49:43 10° NNE 03:54:00 45° E 03:54:18 45° ESE visible
31 Aug 3.5 05:27:37 10° NW 05:29:56 14° WNW 05:31:46 11° W visible
01 Sep 1.5 04:11:17 10° NNE 04:15:46 84° ESE 04:16:13 71° S visible
02 Sep 4.5 02:59:33 10° ENE 03:00:39 11° E 03:00:39 11° E visible
02 Sep 1.7 04:33:06 10° N 04:37:26 53° WNW 04:38:07 48° WSW visible
03 Sep 3.9 03:19:26 10° NE 03:22:33 20° E 03:22:33 20° E visible
03 Sep 2.5 04:55:11 10° N 04:59:04 30° WNW 05:00:01 27° W visible
04 Sep 3.0 03:40:28 10° NNE 03:44:27 35° E 03:44:27 35° E visible
04 Sep 3.2 05:17:39 10° NNW 05:20:37 18° WNW 05:21:55 16° W visible
05 Sep 1.9 04:01:54 10° NNE 04:06:20 64° E 04:06:22 64° ESE visible
05 Sep 3.7 05:41:35 10° WNW 05:42:06 10° WNW 05:42:38 10° WNW visible
06 Sep 1.5 04:23:37 10° N 04:28:03 70° WNW 04:28:15 69° W visible
07 Sep 4.3 03:10:34 10° ENE 03:12:41 15° E 03:12:41 15° E visible
07 Sep 2.1 04:45:34 10° N 04:49:42 38° WNW 04:50:09 37° W visible
08 Sep 3.5 03:31:18 10° NE 03:34:35 26° E 03:34:35 26° E visible
08 Sep 2.9 05:07:50 10° NNW 05:11:17 22° WNW 05:12:02 21° W visible
09 Sep 2.5 03:52:34 10° NNE 03:56:29 47° E 03:56:29 47° E visible
09 Sep 3.5 05:30:43 10° NW 05:32:48 13° WNW 05:33:57 12° W visible
